Location: Alafon
(8.4500°N, 4.2333°E)
Time: 16:08:38
(UTC+00:00)

Transit 2A - Pass Details

Date: 10 August 2021
Orbit: 595 x 964 km, 66.7° (Epoch: 18 September)

Event Time Altitude Azimuth Distance (km) Brightness Sun altitude
Rises 14:05:38 0° 333° (NNW) 3,516 9.7 55.8°
Reaches altitude 10° 14:08:06 10° 330° (NNW) 2,613 9.3 55.2°
Maximum altitude 14:14:11 61° 251° (WSW) 1,070 8.5 53.7°
Drops below altitude 10° 14:20:27 10° 171° (S) 2,692 8.8 52.2°
Sets 14:23:02 0° 168° (SSE) 3,629 9.3 51.6°
